www.pogodaiklimat.ru

Погода и климат >> Архив погоды >> Украина >> Гадяч


ПОГОДА в Гадяче

  • Прогноз погоды в Гадяче
  • Монитор погоды в Гадяче

АРХИВ ПОГОДЫ в Гадяче

Время (UTC), дата Ветер
(напр.,м/с)
 
Видим.   Явления Облачность Т
(С)
Тd
(С)
f
(%)
Тe
(С)
Тes
(С)
Комфортность P
(гПа)
Po
(гПа)
Тmin
(С)
Tmax
(С)
R
(мм)
R24
(мм)
S
(см)
18 16.09 З 1 40 км 3/0
[Ci sp]
+15.2 +6.0 54 +16 +16 1008.0 989.8 +23.5
21 16.09 штиль 0 35 км 9/9 600 м
[Sc]
+13.3 +5.7 60 +13 +13 1008.0 989.7
00 17.09 З 1 40 км 8/8 600 м
[Sc]
+13.7 +4.6 54 +14 +14 1008.0 989.7
03 17.09 З 1 26 км 4/0
[Ci fib]
+9.7 +5.3 74 +9 +9 1008.0 989.4
06 17.09 З 2 20 км 9/0
[As trans Cs]
+12.2 +5.6 64 +11 +11 1008.0 989.6 +9.5
09 17.09 З 6 20 км 8/6 600 м
[Cu med, cong Ci fib]
+18.1 +3.6 38 +18 +18 1007.0 989.0
12 17.09 СЗ 6 20 км 6/6 600 м
[Cu hum]
+18.9 +3.9 37 +19 +20 1006.0 988.1
15 17.09 З 4 20 км 3/3 600 м
[Cu hum]
+17.7 -0.1 30 +18 +18 1006.0 988.0
18 17.09 З 1 40 км ясно +10.4 +3.7 63 +10 +10 1007.0 988.5 +19.6
21 17.09 ЮЗ 1 30 км 8/3 600 м
[Sc Ac trans]
+8.4 +3.0 69 +8 +8 1006.0 987.4
00 18.09 ЮЗ 2 35 км 9/6 600 м
[Sc Ac trans]
+9.4 +2.0 60 +8 +8 1004.0 985.5
03 18.09 ЮЗ 2 30 км 9/9 600 м
[Cb cap]
+9.4 +4.0 69 +8 +8 1003.0 984.5
06 18.09 ЮЗ 4 20 км {ливн. осадки} 10/10 600 м
[Cb cap]
+12.3 +7.8 74 +10 +10 1002.0 983.7 +7.6 0.0
09 18.09 СЗ 6 20 км {гроза, ливн. осадки} 8/8 600 м
[Cb cap]
+13.9 +7.2 64 +12 +12 1002.0 983.8
12 18.09 З 12 20 км {гроза, ливн. осадки} 8/8 600 м
[Cb cap]
+14.3 +1.2 41 +12 +12 1003.0 984.8 2
15 18.09 З 10 20 км 8/8 600 м
[Cb cap]
+11.4 +3.4 58 +8 +8 1006.0 987.6
18 18.09 ЮЗ 3 30 км {ливн. осадки} 8/8 600 м
[Cb cap]
+8.7 +4.1 73 +6 +6 1008.0 989.4 +14.6 3
21 18.09 ЮЗ 3 25 км 8/8 600 м
[Cb cap]
+8.1 +4.5 78 +6 +6 1010.0 991.3
00 19.09 З 4 20 км 10/10 600 м
[Cb cap]
+8.9 +5.8 81 +6 +6 1013.0 994.3
03 19.09 З 4 16 км 9/9 600 м
[Cb cap]
+8.7 +6.3 85 +6 +6 1014.0 995.3
06 19.09 З 3 10 км 9/9 600 м
[Cb cap]
+8.5 +6.3 86 +6 +6 1016.0 997.2 +7.7
09 19.09 З 3 20 км 9/9 300 м
[Cb cap]
+12.1 +5.7 65 +11 +11 1017.0 998.4
12 19.09 З 2 20 км {ливн. осадки} 6/6 600 м
[Cb cap]
+14.4 +5.5 55 +14 +17 1016.0 997.6
15 19.09 З 1 20 км 4/3 600 м
[Cb cap Ac trans]
+12.6 +5.0 60 +13 +13 1017.0 998.5
18 19.09 З 2 28 км 10/10 600 м
[Cb cap]
+10.7 +6.1 73 +9 +9 1018.0 999.3 +14.5 0.0
21 19.09 З 1 16 км 4/0
[Ac trans Ci fib]
+8.3 +5.6 83 +8 +8 1018.0 999.2
00 20.09 З 1 12 км 3/0
[Ac As]
+6.6 +4.8 88 +6 +6 1018.0 999.1
03 20.09 СЗ 1 8000 м дымка 10/10 600 м
[Cb cap]
+5.5 +4.3 92 +4 +4 1018.0 999.0
06 20.09 СЗ 2 10 км 6/6 600 м
[Sc]
+6.8 +5.0 88 +5 +6 1018.0 999.1 +5.2
09 20.09 СЗ 3 20 км 3/3 600 м
[Cu med, cong]
+14.3 +5.1 54 +14 +18 1016.0 997.6
12 20.09 СЗ 2 20 км 8/8 600 м
[Cb cap]
+14.1 +1.4 42 +14 +14 1015.0 996.6
15 20.09 СЗ 2 20 км {ливн. осадки} 9/9 600 м
[Cb cap]
+11.6 +3.1 56 +11 +11 1016.0 997.4
18 20.09 СЗ 2 11 км {ливн. осадки} 8/8 600 м
[Sc]
+7.8 +6.3 90 +6 +6 1017.0 998.2 +15.9 2
21 20.09 штиль 0 5000 м дымка 9/9 600 м
[Sc]
+6.4 +5.7 95 +5 +5 1017.0 998.1
00 21.09 СЗ 1 4800 м дымка 8/0
[Ac trans]
+4.6 +3.9 95 +3 +3 1018.0 998.9
03 21.09 СЗ 1 3000 м дымка 4/0
[Ac trans]
+3.5 +3.1 97 +2 +2 1018.0 998.8
06 21.09 СЗ 1 4000 м дымка 10/10 300 м
[St]
+6.4 +5.7 95 +5 +5 1020.0 1001.0 +3.3
09 21.09 СЗ 3 20 км 8/8 600 м
[Cb cap]
+10.9 +4.1 63 +9 +9 1020.0 1001.3
12 21.09 СЗ 3 20 км 8/8 600 м
[Cb cap]
+11.9 +0.6 46 +11 +11 1019.0 1000.4
15 21.09 З 4 20 км 8/8 600 м
[Sc]
+11.5 -1.6 40 +10 +10 1019.0 1000.3
18 21.09 ЮЗ 2 50 км 10/10 600 м
[Sc]
+8.7 +0.2 55 +7 +7 1018.0 999.2 +13.0
21 21.09 З 2 40 км 10/10 600 м
[Cb cap]
+8.5 +1.4 61 +7 +7 1015.0 996.2
00 22.09 ЮЗ 1 6000 м слаб. ливневой дождь 10/10 600 м
[Cb cap]
+8.7 +7.9 95 +8 +8 1012.0 993.3
03 22.09 З 2 6000 м слаб. ливневой дождь 10/10 600 м
[Cb cap]
+11.1 +10.3 95 +10 +10 1011.0 992.5
06 22.09 З 4 2000 м слаб. дождь 10/9 300 м
[Frnb As op]
+12.3 +11.8 97 +10 +10 1011.0 992.6 +8.1 2
09 22.09 З 6 10 км в посл. час дождь 10/10 300 м
[Cb cap]
+13.7 +10.9 83 +12 +12 1011.0 992.7
12 22.09 З 7 20 км {дождь} 8/8 300 м
[Cb cap]
+14.9 +9.9 72 +13 +13 1011.0 992.7 1
15 22.09 З 5 20 км 9/9 600 м
[Cb cap]
+15.4 +9.1 66 +14 +14 1011.0 992.8
18 22.09 СЗ 1 26 км ясно +13.2 +8.7 74 +13 +13 1011.0 992.6 +15.8 1
21 22.09 СВ 3 18 км 10/10 600 м
[Cb cap]
+10.1 +7.2 82 +8 +8 1013.0 994.4
00 23.09 СВ 2 6000 м слаб. ливневой дождь 10/10 600 м
[Cb cap]
+6.7 +5.8 94 +4 +4 1015.0 996.1 0.3
03 23.09 С 1 6000 м дымка {ливн. осадки} 9/9 600 м
[Cb cap]
+5.9 +5.0 94 +5 +5 1017.0 998.0
06 23.09 СВ 3 10 км {ливн. осадки} 6/6 600 м
[Cu hum]
+5.8 +3.6 86 +2 +3 1019.0 1000.0 +5.0 0.4
09 23.09 СЗ 2 20 км 4/3 600 м
[Cu med, cong Ci fib]
+10.7 +1.2 52 +10 +15 1020.0 1001.3
12 23.09 С 2 20 км 4/1 600 м
[Cu hum Ci fib]
+12.2 -1.0 40 +12 +16 1019.0 1000.4
15 23.09 С 1 20 км 3/3 600 м
[Cu hum]
+11.4 -0.4 44 +12 +12 1020.0 1001.3

 

Местоположение метеостанции Гадяч (Полтавская область, Украина): широта 50.37 долгота 33.98 высота над уровнем моря 154 м.

В архиве по умолчанию представлена погода в Гадяче за последнюю неделю. Архивные данные за месяц целиком и за предыдущие месяцы, начиная с января 2011 года, Вы можете получить, выбрав интересующий диапазон дат из раскрывающегося списка и нажав кнопку "Ввод!".


*Определитесь, кто Вы:
робот инопланетянин человек

Внимание! Время в таблицах - всемирное. Для получения местного времени необходимо прибавить поправку, которая равна 2 ч.

Смотрите также архив погоды в соседних городах и на ближайших метеорологических станциях:

Погода в Лебедине (Сумская область, Украина) (42 км)
Погода в Ромнах (Сумская область, Украина) (58 км)
Погода в Сумах (Сумская область, Украина) (72 км)
Погода в Лубнах (Полтавская область, Украина) (80 км)
Погода в Полтаве (Полтавская область, Украина) (95 км)
Погода в Веселом Подоле (Полтавская область, Украина) (98 км)
Погода в Коломаке (Харьковская область, Украина) (106 км)
Погода в Конотопе (Сумская область, Украина) (110 км)
Погода в Боходухове (Харьковская область, Украина) (112 км)
Погода в Прилуках (Черниговская область, Украина) (116 км)

Пояснения к столбцам:

Ветер - указаны скорость ветра в м/с - средняя за 10 мин, порывы в срок и между сроками (в фигурных скобках) и направление, откуда дует ветер: С - северный, СВ - северо-восточный, В - восточный, ЮВ - юго-восточный, Ю - южный, ЮЗ - юго-западный, З - западный, СЗ - северо-западный.
Видимость - горизонтальная дальность видимости в метрах или километрах. При видимости от 1 до 10 км при отсутствии осадков обычно наблюдается дымка, при ухудшении видимости до 1 км и менее - туман. В сухую погоду видимость может ухудшаться дымом, пылью или мглою.
Явления - указаны атмосферные явления, наблюдавшиеся в срок или в последний час перед сроком; фигурными скобками обозначены явления, наблюдавшиеся между сроками (за 1-3 часа до срока); квадратными скобками обозначены град или гололедные отложения с указанием их диаметра в мм.
Облачность - указаны через наклонную черту общая и нижняя облачность в баллах и высота нижней границы облаков в метрах; квадратными скобками обозначены формы облаков: Ci - перистые, Cs - перисто-слоистые, Cc - перисто-кучевые, Ac - высококучевые, As - высокослоистые, Sc - слоисто-кучевые, Ns - слоисто-дождевые, Cu - кучевые, Cb - кучево-дождевые. Подробнее классификацию облаков см. в Атласе облаков (PDF).
T - Температура воздуха - температура, измеренная на высоте 2 м над землей.
Td - Температура точки росы - температура, при понижении до которой содержащийся в воздухе водяной пар достигнет насыщения.
f - Относительная влажность воздуха - влажноcть воздуха, измеренная на высоте 2 м над землей.
Te - Эффективная температура - температура, которую ощущает одетый по сезону человек в тени. Характеристика душности погоды. При расчете учитывается влияние влажности воздуха и скорости ветра на теплоощущения человека.
Tes - Эффективная температура на солнце - температура, которую ощущает человек, с поправкой на солнечный нагрев. Характеристика знойности погоды. Зависит от высоты солнца над горизонтом, облачности и скорости ветра. Ночью, в пасмурную погоду, а также при ветре 12 м/с и более поправка равна нулю.
P - Атмосферное давление - приведенное к уровню моря атмосферное давление.
Po - Атмосферное давление - измеренное на уровне метеостанции атмосферное давление.
Tmin - Минимальная температура - минимум температуры воздуха на высоте 2 м над землей.
Tmax - Максимальная температура - максимум температуры воздуха на высоте 2 м над землей.
R - Количество осадков - Количество выпавших осадков за период времени, мм. При наведении курсора мыши на число - период времени, за который выпало указанное количество осадков.
R24 - Количество осадков - Количество выпавших осадков за 24 часа, мм.
S - Снежный покров - Высота снежного покрова, см. При наведении курсора мыши на число - состояние снежного покрова и степень покрытия местности в баллах.